Weather History for New Richmond, WI

Change the Weather History Date:

Tuesday, February 21, 2012

  Actual Average (KMSP) Record (KMSP)
Temperature  
Mean Temperature 34 °F 23 °F  
Max Temperature 35 °F 31 °F 59 °F (1930)
Min Temperature 32 °F 15 °F -21 °F (1873)
Degree Days  
Heating Degree Days 32 42  
Month to date heating degree days 954  
Since 1 July heating degree days 5508  
Cooling Degree Days 0 0  
Month to date cooling degree days 0  
Year to date cooling degree days 0  
Moisture  
Dew Point 31 °F    
Average Humidity 93    
Maximum Humidity 100    
Minimum Humidity 75    
Precipitation  
Precipitation 0.10 in 0.03 in 0.82 in (1882)
Month to date precipitation 0.51  
Year to date precipitation 1.41  
Snow  
Snow 0.00 in 0.20 in 5.50 in (1962)
Month to date snowfall 5.5  
Since 1 July snowfall 39.5  
Snow Depth -    
Sea Level Pressure  
Sea Level Pressure 29.52 in    
Wind  
Wind Speed 12 mph (SW)    
Max Wind Speed 23 mph    
Max Gust Speed 31 mph    
Visibility 7 miles    
Events Rain , Snow    
T = Trace of Precipitation, MM = Missing Value Source: NWS Daily Summary

Daily Weather History Graph

Daily Weather History Graph

Search for Another Location

Airport:

Trip Planner

Search our weather history database for the weather conditions in past years. The results will help you decide how hot, cold, wet, or windy it might be!

Date:

Astronomy

Feb. 21, 2012 Rise Set
Actual Time 7:02 AM CST 5:45 PM CST
Civil Twilight 6:32 AM CST 6:15 PM CST
Nautical Twilight 5:58 AM CST 6:49 PM CST
Astronomical Twilight 5:24 AM CST 7:24 PM CST
Moon 6:30 AM CST (2/21) 5:55 PM CST (2/21)
Length of Visible Light 11h 43m
Length of Day
10h 43m
Waning Crescent, 0% of the Moon is Illuminated
Feb 21
Waning Crescent
Feb 21
New
Feb 29
First Quarter
Mar 8
Full
Mar 14
Last Quarter

Hourly Weather History & Observations

Time (CST) Temp. Windchill Dew Point Humidity Pressure Visibility Wind Dir Wind Speed Gust Speed Precip Events Conditions
12:15 AM 32.0 °F 22.5 °F 32.0 °F 100% 29.65 in 1.2 mi SE 12.7 mph 17.3 mph N/A Snow Light Snow
12:35 AM 32.0 °F 24.2 °F 32.0 °F 100% 29.65 in 1.8 mi SSE 9.2 mph - N/A Snow Light Snow
12:55 AM 32.0 °F 23.6 °F 32.0 °F 100% 29.64 in 1.5 mi SE 10.4 mph 16.1 mph N/A Snow Light Snow
1:15 AM 32.0 °F 24.8 °F 32.0 °F 100% 29.62 in 1.5 mi SE 8.1 mph - N/A Snow Light Snow
1:35 AM 32.0 °F 24.2 °F 32.0 °F 100% 29.61 in 2.0 mi SSE 9.2 mph - N/A Snow Light Snow
1:55 AM 32.0 °F 26.4 °F 32.0 °F 100% 29.60 in 1.5 mi SSE 5.8 mph - N/A Snow Light Snow
2:15 AM 32.0 °F 25.6 °F 32.0 °F 100% 29.59 in 2.0 mi SSE 6.9 mph - N/A Snow Light Snow
2:35 AM 32.0 °F 24.8 °F 32.0 °F 100% 29.57 in 2.0 mi SSE 8.1 mph - N/A Snow Light Snow
2:55 AM 32.0 °F 25.6 °F 32.0 °F 100% 29.55 in 2.5 mi SSE 6.9 mph - N/A Snow Light Snow
3:35 AM 32.0 °F 24.2 °F 32.0 °F 100% 29.53 in 3.0 mi SSE 9.2 mph - N/A Snow Light Snow
3:55 AM 32.0 °F 24.8 °F 32.0 °F 100% 29.51 in 4.0 mi SSE 8.1 mph - N/A Rain Light Rain
4:15 AM 32.0 °F 24.2 °F 32.0 °F 100% 29.50 in 3.0 mi SSE 9.2 mph - N/A Rain Light Rain
4:35 AM 32.0 °F 23.6 °F 32.0 °F 100% 29.50 in 4.0 mi SSE 10.4 mph - N/A Rain Light Rain
4:55 AM 32.0 °F 24.2 °F 32.0 °F 100% 29.49 in 3.0 mi South 9.2 mph - N/A   Overcast
5:15 AM 32.0 °F 24.2 °F 32.0 °F 100% 29.49 in 2.5 mi South 9.2 mph - N/A   Overcast
5:35 AM 32.0 °F 23.6 °F 32.0 °F 100% 29.49 in 2.5 mi South 10.4 mph - N/A   Overcast
5:55 AM 32.0 °F 23.6 °F 32.0 °F 100% 29.48 in 2.5 mi SSW 10.4 mph 16.1 mph N/A   Overcast
6:35 AM 32.0 °F 23.0 °F 32.0 °F 100% 29.47 in 2.0 mi SW 11.5 mph - N/A Rain Light Rain
7:15 AM 32.0 °F 22.5 °F 32.0 °F 100% 29.47 in 2.5 mi WSW 12.7 mph - N/A Snow Light Snow
7:35 AM 32.0 °F 23.0 °F 32.0 °F 100% 29.48 in 2.0 mi WSW 11.5 mph - N/A Snow Light Snow
7:55 AM 32.0 °F 22.5 °F 32.0 °F 100% 29.49 in 2.0 mi WSW 12.7 mph - N/A Snow Light Snow
8:35 AM 32.0 °F 23.6 °F 32.0 °F 100% 29.49 in 10.0 mi West 10.4 mph 17.3 mph N/A   Overcast
8:55 AM 32.0 °F 24.2 °F 32.0 °F 100% 29.50 in 10.0 mi West 9.2 mph - 0.02 in   Overcast
9:15 AM 32.0 °F 24.2 °F 32.0 °F 100% 29.49 in 10.0 mi West 9.2 mph - 0.03 in   Overcast
9:35 AM 33.8 °F 24.8 °F 32.0 °F 93% 29.50 in 10.0 mi West 12.7 mph 19.6 mph 0.06 in   Overcast
9:55 AM 33.8 °F 24.3 °F 32.0 °F 93% 29.50 in 10.0 mi West 13.8 mph 18.4 mph 0.08 in   Overcast
10:15 AM 33.8 °F 23.9 °F 32.0 °F 93% 29.51 in 10.0 mi West 15.0 mph 23.0 mph N/A   Overcast
10:35 AM 33.8 °F 24.3 °F 32.0 °F 93% 29.51 in 10.0 mi West 13.8 mph 17.3 mph N/A   Overcast
10:55 AM 33.8 °F 24.8 °F 32.0 °F 93% 29.51 in 10.0 mi West 12.7 mph 19.6 mph N/A   Overcast
11:15 AM 33.8 °F 25.3 °F 32.0 °F 93% 29.51 in 10.0 mi West 11.5 mph - N/A   Overcast
11:35 AM 33.8 °F 24.3 °F 32.0 °F 93% 29.51 in 10.0 mi WSW 13.8 mph 19.6 mph N/A   Overcast
11:55 AM 33.8 °F 25.8 °F 32.0 °F 93% 29.51 in 10.0 mi WSW 10.4 mph 18.4 mph N/A   Overcast
12:15 PM 33.8 °F 24.8 °F 32.0 °F 93% 29.50 in 10.0 mi WSW 12.7 mph - N/A   Overcast
12:35 PM 33.8 °F 25.3 °F 32.0 °F 93% 29.50 in 10.0 mi WSW 11.5 mph 21.9 mph N/A   Overcast
12:55 PM 33.8 °F 23.9 °F 32.0 °F 93% 29.49 in 10.0 mi WSW 15.0 mph 23.0 mph N/A   Overcast
1:15 PM 35.6 °F 27.1 °F 32.0 °F 87% 29.49 in 10.0 mi WSW 12.7 mph 17.3 mph N/A   Overcast
1:35 PM 33.8 °F 22.8 °F 32.0 °F 93% 29.48 in 10.0 mi WSW 18.4 mph - N/A   Overcast
2:15 PM 32.0 °F 21.6 °F 30.2 °F 93% 29.49 in 10.0 mi West 15.0 mph 23.0 mph N/A   Overcast
2:35 PM 32.0 °F 21.2 °F 30.2 °F 93% 29.49 in 10.0 mi WSW 16.1 mph - N/A   Overcast
2:55 PM 32.0 °F 21.2 °F 30.2 °F 93% 29.50 in 10.0 mi WSW 16.1 mph - N/A   Overcast
3:15 PM 32.0 °F 20.8 °F 28.4 °F 87% 29.50 in 10.0 mi West 17.3 mph 26.5 mph N/A   Overcast
3:35 PM 32.0 °F 20.8 °F 28.4 °F 87% 29.50 in 10.0 mi West 17.3 mph - N/A   Overcast
3:55 PM 32.0 °F 21.2 °F 28.4 °F 87% 29.50 in 10.0 mi WSW 16.1 mph - N/A   Overcast
4:15 PM 32.0 °F 19.5 °F 28.4 °F 87% 29.50 in 10.0 mi West 21.9 mph 27.6 mph N/A   Overcast
4:35 PM 32.0 °F 22.5 °F 28.4 °F 87% 29.51 in 10.0 mi West 12.7 mph 24.2 mph N/A   Overcast
4:55 PM 32.0 °F 19.2 °F 28.4 °F 87% 29.51 in 10.0 mi West 23.0 mph 28.8 mph N/A   Overcast
5:15 PM 32.0 °F 19.5 °F 28.4 °F 87% 29.51 in 10.0 mi West 21.9 mph 31.1 mph N/A   Overcast
5:35 PM 32.0 °F 20.5 °F 28.4 °F 87% 29.52 in 10.0 mi West 18.4 mph 25.3 mph N/A   Overcast
5:55 PM 32.0 °F 19.8 °F 28.4 °F 87% 29.52 in 10.0 mi West 20.7 mph - N/A   Overcast
6:15 PM 32.0 °F 21.6 °F 28.4 °F 87% 29.53 in 10.0 mi West 15.0 mph 26.5 mph N/A   Overcast
6:35 PM 32.0 °F 21.2 °F 26.6 °F 80% 29.54 in 10.0 mi West 16.1 mph 25.3 mph N/A   Overcast
6:55 PM 32.0 °F 22.5 °F 26.6 °F 80% 29.54 in 10.0 mi West 12.7 mph 26.5 mph N/A   Overcast
7:15 PM 32.0 °F 21.6 °F 26.6 °F 80% 29.54 in 10.0 mi West 15.0 mph 23.0 mph N/A   Overcast
7:35 PM 32.0 °F 21.2 °F 26.6 °F 80% 29.54 in 10.0 mi West 16.1 mph 19.6 mph N/A   Overcast
7:55 PM 32.0 °F 21.2 °F 26.6 °F 80% 29.54 in 10.0 mi West 16.1 mph 20.7 mph N/A   Overcast
8:15 PM 32.0 °F 21.6 °F 26.6 °F 80% 29.54 in 10.0 mi West 15.0 mph - N/A   Overcast
8:35 PM 32.0 °F 21.6 °F 26.6 °F 80% 29.54 in 10.0 mi West 15.0 mph 20.7 mph N/A   Overcast
8:55 PM 32.0 °F 21.6 °F 24.8 °F 75% 29.54 in 10.0 mi West 15.0 mph - N/A   Overcast
9:15 PM 32.0 °F 21.2 °F 24.8 °F 75% 29.53 in 10.0 mi WSW 16.1 mph - N/A   Overcast
9:35 PM 30.2 °F 19.3 °F 23.0 °F 75% 29.53 in 10.0 mi West 15.0 mph 20.7 mph N/A   Overcast
9:55 PM 30.2 °F 19.8 °F 23.0 °F 75% 29.53 in 10.0 mi West 13.8 mph - N/A   Overcast
10:15 PM 30.2 °F 19.3 °F 23.0 °F 75% 29.52 in 10.0 mi West 15.0 mph 20.7 mph N/A   Overcast
10:35 PM 30.2 °F 19.3 °F 23.0 °F 75% 29.52 in 10.0 mi West 15.0 mph - N/A   Overcast
10:55 PM 30.2 °F 18.9 °F 23.0 °F 75% 29.53 in 10.0 mi West 16.1 mph - N/A   Overcast
11:15 PM 30.2 °F 19.8 °F 23.0 °F 75% 29.52 in 10.0 mi West 13.8 mph 23.0 mph N/A   Overcast
11:35 PM 30.2 °F 19.8 °F 23.0 °F 75% 29.52 in 10.0 mi West 13.8 mph - N/A   Mostly Cloudy
11:55 PM 28.4 °F 18.0 °F 21.2 °F 74% 29.52 in 10.0 mi West 12.7 mph - N/A   Scattered Clouds